Wind_Speed
21 14 18 24 18 6 8 9 4 6 3 9 2 9 6 7 7 9 12 15 19 13 11 12 13 13 12 13 16 17 17 15 16 13 10 9 10 8 7 7 17 23 23 15
18 20 22 20 3 3 10 13 11 8 4 7 4 10 6 8 7 10 10 14 12 14 11 12 11 13 13 13 14 16 16 16 16 10 11 11 10 9 9 6 6 10 9 9
22 20 21 22 11 11 15 16 3 6 5 11 11 7 5 11 7 9 10 11 12 13 15 14 14 14 14 14 14 15 16 17 15 12 10 11 10 14 9 6 6 9 8 7
19 20 23 20 12 17 20 9 1 7 11 2 21 4 20 13 12 8 12 12 13 13 12 12 19 14 16 16 14 12 15 16 16 13 11 13 11 10 8 7 9 11 12 10
18 23 19 17 16 19 15 4 8 7 14 13 12 9 13 9 7 15 12 16 13 14 16 13 8 15 15 16 16 13 9 12 14 13 12 10 10 10 8 7 7 8 9 12
19 19 13 18 18 20 12 4 12 14 14 12 16 9 12 4 8 6 12 15 14 11 10 8 7 10 12 15 16 14 10 9 9 9 10 10 8 7 6 6 6 7 9 9
18 20 16 21 22 17 14 14 13 13 12 11 17 5 3 10 7 1 11 14 14 11 11 11 11 11 13 15 16 15 15 11 9 8 8 8 6 5 3 5 7 10 10 12
15 18 19 16 21 15 17 20 15 11 9 5 18 2 6 8 6 4 8 16 15 12 12 11 13 13 14 15 16 15 14 13 8 8 7 6 5 1 2 6 7 7 9 10
15 20 20 15 19 19 20 18 23 20 23 16 6 9 8 12 8 7 12 17 17 13 11 11 12 12 14 16 17 16 14 12 11 9 10 6 4 2 5 5 5 6 8 9
13 12 17 21 16 22 19 13 12 9 10 6 8 4 4 10 9 8 12 18 19 15 12 13 13 13 13 14 15 15 14 12 11 10 8 6 4 1 1 3 4 6 6 9
21 13 13 15 13 17 12 13 11 10 6 9 8 9 2 3 4 12 14 18 21 17 15 14 13 13 13 13 14 14 13 12 12 10 9 7 3 1 1 1 3 6 7 9
23 9 14 19 17 23 23 19 19 9 12 10 10 5 11 5 4 10 15 18 21 18 17 15 14 14 14 14 14 13 13 13 13 11 7 5 5 5 1 1 3 7 9 11
19 12 14 15 21 22 11 12 12 13 15 8 17 7 3 9 3 5 14 19 18 19 17 16 15 14 14 14 13 13 13 13 12 9 9 7 5 2 1 3 5 7 10 12
22 19 19 14 19 18 19 20 15 17 12 7 10 16 13 12 9 8 7 17 19 19 20 16 16 15 14 13 13 13 14 13 13 11 10 8 5 3 3 6 8 9 11 12
20 19 22 3 9 16 14 17 14 16 6 6 5 9 9 7 8 8 7 11 16 18 16 15 14 15 14 13 13 13 14 14 13 11 10 7 6 6 7 9 12 12 13 11
21 18 21 9 12 10 18 12 16 11 12 19 28 25 11 12 13 8 7 10 12 14 15 15 13 11 13 11 11 12 12 13 13 11 9 8 7 9 11 12 13 13 16 12
21 19 17 13 14 13 12 11 13 9 7 7 8 13 4 8 10 4 6 8 13 16 16 18 15 10 10 9 10 10 11 12 11 10 9 9 9 12 13 14 13 14 14 14
19 21 16 13 15 18 9 8 18 12 7 8 7 9 7 12 8 4 4 9 13 16 15 14 17 9 10 13 13 12 13 12 11 8 8 9 10 12 13 11 12 14 15 18
21 19 13 14 5 11 16 10 9 4 10 7 9 8 8 16 8 7 7 10 14 16 20 15 14 16 13 12 10 13 12 11 9 6 7 10 11 11 11 14 15 16 18 18
17 18 15 15 15 14 15 21 21 3 7 6 6 3 3 11 10 10 12 16 19 18 18 17 17 17 15 8 6 8 10 7 4 4 7 11 12 11 12 14 15 17 17 19
9 11 18 11 14 11 14 3 10 10 2 7 6 3 2 2 7 20 17 16 15 16 18 17 17 18 18 18 9 5 5 8 7 0 3 7 10 13 10 15 18 19 19 19
12 11 11 14 11 6 7 7 4 8 5 5 3 3 16 17 19 18 16 16 16 18 16 14 20 20 17 12 9 10 14 6 2 4 7 11 15 13 12 15 14 14 14 16
3 7 4 9 3 9 1 13 7 7 7 3 7 13 19 20 18 17 17 15 16 14 14 12 13 9 10 10 11 13 6 0 6 10 13 12 13 14 11 12 12 12 12 13
1 8 6 6 15 8 5 5 7 5 6 7 14 18 20 22 20 19 19 19 18 12 9 8 10 11 13 12 10 5 3 7 9 9 10 9 9 12 10 9 9 10 10 12
9 10 6 7 10 3 5 1 5 6 7 10 16 18 21 22 20 18 17 15 15 13 14 13 13 13 12 10 5 2 5 7 8 8 7 7 6 9 9 8 9 7 9 19
12 8 7 4 8 5 5 2 6 10 11 9 17 17 17 19 20 18 16 16 18 19 17 15 14 12 10 5 1 3 6 6 5 5 5 7 5 7 8 8 9 14 16 21
Wind_Direction
202 216 225 231 230 99 297 301 315 138 62 288 314 297 85 159 196 186 202 173 175 191 175 189 202 203 201 201 197 197 212 208 218 215 219 223 224 228 233 256 254 255 247 255
214 225 230 238 290 268 225 251 254 123 160 269 239 267 146 163 202 199 201 181 183 156 190 186 191 195 195 196 198 197 201 202 212 219 215 215 223 217 232 259 344 14 252 242
228 209 234 235 180 233 238 249 138 341 340 239 262 258 250 157 178 198 208 206 190 186 185 186 194 196 190 188 190 194 193 201 197 197 203 209 202 210 218 271 285 327 333 299
221 242 207 236 234 209 244 246 173 261 260 288 286 194 244 151 169 175 201 202 205 187 197 216 175 190 194 186 181 183 193 201 206 209 206 205 212 215 235 263 272 297 319 322
217 221 232 219 216 232 258 205 272 269 258 252 183 272 164 187 175 161 211 186 207 181 192 188 213 163 189 190 190 183 189 200 204 214 192 223 208 222 245 266 271 299 326 329
244 211 212 226 225 235 249 236 239 241 252 263 121 250 51 189 65 137 176 183 189 190 161 160 168 175 180 189 185 179 178 182 192 206 223 215 221 219 240 258 304 316 311 314
223 243 215 216 230 210 223 228 236 226 218 240 160 196 150 171 64 130 176 180 173 164 158 160 170 170 178 183 181 181 177 172 181 197 202 209 225 238 264 305 317 316 318 316
209 213 210 211 237 211 211 235 246 212 267 46 327 252 109 56 94 158 199 170 168 174 148 167 162 168 171 180 182 183 184 188 188 182 201 207 210 313 311 320 301 323 317 319
199 227 187 207 217 236 210 224 256 285 195 245 214 140 170 132 127 176 189 166 167 170 164 158 165 168 170 178 182 184 181 175 176 178 192 189 179 218 281 304 343 313 329 338
258 213 217 193 215 220 243 280 234 246 274 265 268 225 110 152 160 178 179 177 171 163 169 167 163 164 168 175 175 177 174 168 166 182 174 169 179 226 322 337 345 344 355 358
250 258 172 200 196 215 212 240 264 276 259 291 246 41 39 116 168 172 187 190 172 166 176 165 161 158 158 161 167 169 167 171 174 166 170 183 168 197 95 349 22 11 355 357
228 242 223 202 189 229 205 215 243 228 222 254 288 81 215 76 129 167 185 190 173 176 174 167 164 162 158 160 164 169 173 172 164 171 165 166 150 151 124 123 350 359 359 358
215 241 240 180 210 211 236 240 255 252 251 106 272 151 301 340 120 157 171 175 177 180 176 173 170 167 166 166 168 171 171 173 175 165 152 173 174 173 292 332 326 331 334 341
215 234 244 193 191 192 213 239 237 258 259 36 27 358 194 159 143 145 167 173 191 189 177 180 175 175 175 173 174 176 177 181 180 166 181 184 186 225 280 303 309 315 313 328
222 229 244 53 333 208 206 256 207 246 91 78 33 242 280 58 95 145 178 186 192 184 174 176 186 185 183 181 184 187 186 185 186 180 190 208 232 260 291 302 298 308 310 316
213 233 245 131 220 248 179 201 331 216 266 165 173 220 123 80 90 116 175 191 194 178 181 177 180 187 188 188 196 192 196 193 190 190 201 225 247 272 283 300 306 302 302 321
205 224 228 217 215 228 229 236 221 226 221 271 272 92 124 114 87 81 160 187 190 177 180 171 192 182 185 193 186 192 195 193 190 201 218 243 271 286 290 301 307 301 307 315
202 212 222 237 216 223 232 234 218 226 224 266 280 303 57 77 82 86 146 175 175 157 159 168 185 181 180 174 179 185 189 192 190 207 241 263 278 287 307 316 313 311 316 312
194 202 223 220 322 225 219 194 237 247 267 260 239 255 122 119 129 86 109 150 159 154 167 159 151 147 135 146 169 171 172 182 185 206 261 277 288 288 302 298 302 309 309 312
231 198 221 231 215 223 206 213 196 244 248 329 263 345 304 142 233 114 121 131 135 140 148 144 142 139 129 113 135 149 163 158 203 225 237 266 292 312 313 305 309 310 313 314
221 216 212 218 227 206 50 150 131 197 82 32 33 22 273 39 50 133 139 141 147 151 148 146 140 139 143 140 160 148 172 170 211 286 312 308 308 319 323 301 307 312 315 319
188 212 221 233 234 149 140 158 277 95 93 93 101 111 90 110 119 133 140 144 145 145 150 141 141 133 139 153 211 223 231 196 221 302 315 316 313 319 315 316 326 331 340 336
208 18 35 354 108 265 127 83 112 89 102 97 122 124 127 125 130 135 141 147 152 149 140 137 136 171 200 165 179 182 173 311 339 327 325 326 331 325 340 345 344 347 340 337
159 34 93 109 329 68 95 107 105 108 133 154 144 138 136 134 137 138 144 154 162 171 175 168 150 163 161 165 164 161 25 347 334 336 347 344 356 347 357 9 346 353 353 351
338 307 353 287 235 239 230 186 160 164 157 157 149 151 145 146 151 155 158 163 170 173 158 156 149 142 141 145 134 41 348 340 346 4 14 4 2 358 6 350 341 356 338 346
266 297 293 22 45 346 46 318 202 184 180 167 168 161 161 158 157 157 159 162 160 159 160 154 151 142 141 146 115 344 343 359 37 45 23 347 9 350 350 352 354 340 346 353
Height
1503 1503 1500 1487 1481 1493 1489 1488 1490 1485 1490 1492 1487 1486 1483 1493 1498 1498 1499 1505 1508 1516 1519 1522 1526 1528 1531 1533 1536 1537 1538 1540 1543 1544 1545 1547 1547 1547 1547 1549 1546 1544 1542 1543
1494 1498 1487 1481 1482 1487 1490 1492 1487 1482 1487 1490 1484 1486 1482 1488 1493 1496 1497 1499 1503 1510 1516 1520 1523 1525 1528 1530 1532 1534 1537 1539 1539 1541 1543 1545 1544 1545 1545 1544 1541 1539 1538 1539
1490 1483 1485 1479 1482 1493 1489 1487 1490 1490 1485 1483 1484 1492 1483 1482 1490 1492 1495 1497 1498 1504 1509 1514 1519 1522 1525 1527 1529 1530 1533 1534 1536 1539 1539 1541 1541 1541 1542 1542 1540 1538 1538 1538
1483 1479 1481 1478 1486 1487 1488 1476 1481 1488 1491 1508 1490 1514 1499 1475 1482 1491 1493 1495 1496 1501 1506 1507 1510 1518 1522 1525 1527 1528 1530 1532 1533 1534 1537 1537 1539 1540 1542 1541 1541 1538 1536 1534
1484 1480 1478 1477 1483 1479 1481 1483 1483 1484 1485 1477 1481 1486 1489 1473 1477 1481 1489 1490 1493 1496 1499 1506 1508 1511 1518 1522 1525 1526 1528 1530 1532 1533 1536 1537 1537 1539 1539 1540 1539 1538 1536 1534
1475 1474 1474 1479 1478 1476 1475 1483 1484 1480 1477 1494 1485 1485 1496 1502 1477 1476 1483 1485 1491 1494 1499 1504 1508 1513 1518 1521 1524 1526 1527 1530 1533 1535 1536 1537 1538 1538 1539 1539 1538 1538 1537 1536
1482 1471 1473 1477 1478 1473 1481 1488 1498 1502 1493 1489 1462 1479 1474 1472 1471 1475 1479 1484 1490 1494 1499 1505 1509 1514 1518 1521 1524 1526 1526 1529 1532 1534 1536 1537 1538 1538 1538 1537 1538 1535 1535 1533
1483 1490 1473 1470 1471 1472 1480 1478 1486 1510 1504 1499 1492 1485 1474 1466 1471 1477 1479 1484 1491 1495 1499 1503 1509 1514 1517 1520 1524 1527 1527 1528 1531 1535 1537 1537 1538 1539 1539 1538 1536 1535 1534 1532
1471 1477 1462 1465 1469 1468 1470 1482 1457 1468 1472 1477 1463 1458 1454 1463 1471 1475 1478 1483 1490 1495 1500 1505 1510 1513 1516 1519 1522 1525 1527 1528 1531 1534 1535 1535 1537 1538 1538 1536 1534 1534 1532 1530
1456 1473 1453 1460 1463 1465 1463 1457 1476 1466 1496 1503 1477 1471 1470 1469 1471 1474 1476 1482 1489 1496 1501 1504 1509 1513 1517 1520 1523 1525 1527 1529 1532 1534 1536 1536 1536 1536 1536 1537 1535 1533 1531 1528
1457 1457 1460 1456 1468 1468 1469 1470 1460 1457 1471 1489 1490 1501 1458 1464 1462 1468 1475 1482 1486 1495 1501 1505 1510 1514 1517 1521 1524 1526 1528 1531 1533 1535 1536 1536 1536 1537 1536 1536 1535 1533 1531 1528
1460 1454 1460 1459 1454 1454 1454 1459 1458 1472 1481 1464 1464 1495 1466 1461 1463 1464 1471 1481 1484 1494 1500 1505 1510 1514 1518 1521 1524 1527 1529 1531 1533 1535 1536 1537 1536 1536 1537 1536 1536 1534 1532 1529
1456 1461 1465 1463 1457 1450 1458 1448 1445 1445 1444 1474 1482 1484 1463 1465 1465 1465 1470 1479 1484 1493 1499 1506 1511 1515 1519 1521 1524 1526 1529 1532 1534 1535 1536 1538 1538 1538 1538 1537 1535 1533 1531 1528
1457 1452 1448 1458 1454 1448 1463 1455 1448 1447 1461 1470 1501 1502 1460 1459 1463 1468 1470 1476 1482 1491 1497 1505 1512 1516 1519 1521 1524 1527 1530 1532 1534 1535 1538 1538 1539 1539 1538 1536 1534 1532 1529 1527
1454 1457 1442 1447 1439 1440 1450 1452 1447 1453 1458 1486 1495 1510 1484 1455 1461 1469 1475 1479 1483 1491 1499 1507 1513 1516 1519 1522 1525 1527 1530 1532 1533 1535 1537 1538 1538 1538 1536 1535 1532 1530 1528 1525
1451 1457 1444 1453 1449 1445 1454 1450 1456 1447 1447 1459 1476 1469 1453 1458 1463 1471 1478 1481 1486 1493 1500 1508 1512 1516 1519 1522 1525 1528 1530 1532 1533 1534 1536 1537 1537 1537 1535 1532 1530 1528 1526 1523
1448 1451 1453 1462 1451 1455 1461 1448 1445 1443 1443 1449 1461 1456 1455 1456 1466 1472 1477 1481 1485 1492 1498 1504 1511 1515 1517 1519 1523 1526 1529 1531 1532 1534 1536 1537 1536 1535 1533 1530 1528 1526 1523 1522
1443 1449 1448 1454 1452 1479 1441 1433 1436 1440 1443 1444 1446 1449 1452 1462 1472 1476 1478 1480 1484 1492 1500 1503 1504 1511 1513 1516 1519 1523 1526 1529 1530 1533 1536 1537 1535 1531 1529 1527 1526 1523 1521 1518
1431 1441 1449 1456 1472 1446 1440 1439 1441 1445 1449 1442 1446 1448 1452 1464 1476 1478 1479 1482 1488 1493 1495 1503 1506 1510 1514 1517 1519 1519 1522 1526 1527 1530 1534 1533 1531 1528 1527 1524 1521 1519 1517 1514
1424 1430 1442 1443 1464 1464 1439 1426 1429 1437 1457 1443 1442 1448 1452 1459 1468 1477 1483 1487 1489 1494 1500 1503 1506 1508 1514 1519 1521 1523 1523 1525 1530 1526 1524 1527 1527 1525 1524 1521 1519 1516 1514 1511
1435 1432 1442 1448 1447 1442 1443 1448 1437 1461 1464 1454 1453 1457 1460 1463 1472 1479 1486 1491 1494 1498 1502 1505 1508 1508 1509 1504 1520 1523 1518 1520 1525 1526 1524 1522 1523 1520 1520 1518 1514 1512 1509 1506
1439 1445 1440 1434 1447 1463 1438 1442 1445 1452 1455 1457 1461 1462 1469 1474 1479 1484 1490 1494 1497 1501 1505 1506 1505 1507 1511 1511 1512 1517 1524 1523 1523 1524 1522 1519 1518 1516 1514 1513 1511 1509 1507 1506
1445 1441 1453 1464 1466 1474 1449 1444 1452 1450 1457 1462 1465 1468 1473 1478 1483 1488 1493 1497 1501 1504 1506 1506 1506 1509 1510 1511 1512 1517 1520 1521 1521 1520 1518 1517 1516 1513 1512 1510 1512 1510 1508 1506
1438 1446 1450 1485 1440 1439 1449 1454 1451 1454 1459 1464 1467 1471 1475 1479 1484 1488 1492 1495 1500 1505 1506 1508 1509 1510 1510 1512 1515 1518 1518 1519 1519 1518 1516 1516 1516 1514 1511 1512 1513 1510 1507 1506
1447 1446 1448 1448 1442 1446 1448 1450 1452 1459 1462 1464 1468 1473 1476 1480 1484 1488 1491 1496 1499 1503 1505 1508 1510 1511 1511 1514 1516 1516 1517 1518 1517 1515 1515 1515 1518 1515 1513 1513 1511 1509 1506 1505
1452 1443 1444 1449 1449 1448 1450 1453 1456 1460 1463 1466 1469 1473 1477 1480 1483 1487 1493 1496 1499 1503 1506 1508 1512 1512 1512 1513 1514 1516 1516 1515 1514 1516 1516 1515 1517 1516 1514 1512 1511 1506 1503 1502